This is the latest recevied weather packets stored in our database for station/object CT1ETE-13. If no packets are shown the sender has not sent any weather packets the latest 10 day(s).
| Time | Temp. | Humidity | Pressure | Rain* | Wind** | Luminosity | Snow |
|---|---|---|---|---|---|---|---|
| 1777627934 | 17.78° C | 72% | 1019 hPa | 0 mm | - | - | - |
| 1777626975 | 17.22° C | 73% | 1018.9 hPa | 0 mm | - | - | - |
| 1777626075 | 16.67° C | 71% | 1018.9 hPa | 0 mm | - | - | - |
| 1777625173 | 16.67° C | 79% | 1018.8 hPa | 0 mm | - | - | - |
| 1777624332 | 16.11° C | 79% | 1018.8 hPa | 0 mm | - | - | - |
| 1777623372 | 15.56° C | 80% | 1018.8 hPa | 0 mm | - | - | - |
| 1777622472 | 15.56° C | 81% | 1018.6 hPa | 0 mm | - | - | - |
| 1777621572 | 15° C | 83% | 1018.5 hPa | 0 mm | - | - | - |
| 1777620672 | 14.44° C | 85% | 1018.6 hPa | 0 mm | - | - | - |
| 1777619771 | 13.89° C | 85% | 1018.6 hPa | 0 mm | - | - | - |
| 1777618870 | 13.89° C | 85% | 1018.5 hPa | 0 mm | - | - | - |
| 1777617968 | 12.78° C | 86% | 1018.5 hPa | 0 mm | - | - | - |
| 1777617066 | 12.22° C | 86% | 1018.2 hPa | 0 mm | - | - | - |
| 1777616164 | 12.22° C | 85% | 1018.2 hPa | 0 mm | - | - | - |
| 1777615324 | 12.78° C | 85% | 1018.1 hPa | 0 mm | - | - | - |
| 1777614367 | 12.78° C | 85% | 1018 hPa | 0 mm | - | - | - |
| 1777613465 | 12.78° C | 86% | 1018 hPa | 0 mm | - | - | - |
| 1777612562 | 12.78° C | 86% | 1017.9 hPa | 0 mm | - | - | - |
| 1777612154 | 12.78° C | 86% | 1017.9 hPa | 0 mm | - | - | - |
| 1777610818 | 12.78° C | 85% | 1017.9 hPa | 0 mm | - | - | - |
| 1777609856 | 12.78° C | 86% | 1018 hPa | 0 mm | - | - | - |
| 1777608953 | 12.78° C | 86% | 1018.2 hPa | 0 mm | - | - | - |
| 1777608054 | 13.33° C | 86% | 1018.2 hPa | 0 mm | - | - | - |
| 1777607586 | 13.33° C | 85% | 1018.2 hPa | 0 mm | - | - | - |
| 1777606254 | 13.33° C | 85% | 1018.2 hPa | 0 mm | - | - | - |
* Rain latest hour (hover to see other rain measurements)
** Current wind speed in m/s (hover to see current wind gust speed)